Погода в Колтубановском

Россия / Оренбургская область     52°56′19″N   52°01′54″E
темп.,
°C
ветер,
м/с
пор.,
м/с
влажн.,
%
обл.,
%
осадки,
мм/ч
давл.,
гПа
погр.,
м
27 сентября, пн
пн2723:00+10в247194 0.0 100585
02:00+10в2669100 0.0 1004211
05:00+10в3774100 0.5 1004297
08:00+10св2780100 0.4 1003261
11:00+11в5961100 0.6 1004679
14:00+13в585098 0.0 10061062
17:00+14всв583876 0.0 10071758
20:00+8всв6135198 0.0 1010651
28 сентября, вт
вт2823:00+5всв5106488 0.0 1012704
02:00+4св4975100 0.0 1014820
05:00+4св497884 0.0 1016822
08:00+4св497583 0.0 1017907
11:00+5св5966100 0.0 10191171
14:00+7св5854100 0.0 10201494
17:00+9св3849100 0.0 10211638
20:00+8св384889 0.0 1022573
29 сентября, ср
ср2923:00+5ссв41057100 0.0 1024347
02:00+4св4962100 0.0 1024357
05:00+3ссв3968100 0.0 1025385
08:00+2св397596 0.0 1026373
11:00+7св475320 0.0 10271009
14:00+9св453847 0.0 10271748
17:00+10ссв453666 0.0 10271879
20:00+5ссв385331 0.0 1028177
30 сентября, чт
чт3023:00+3ссв37585 0.0 1030130
02:00+2ссв24655 0.0 103064
05:00+1ссв22695 0.0 103134
08:00+1ссв237227 0.0 103256
11:00+7ссв3547100 0.0 1032774
14:00+10с343913 0.0 10311722
17:00+10с343763 0.0 10301890
20:00+5ссз225432 0.0 103112
1 октября, пт
пт123:00+4с22625 0.0 103222
02:00+3ссз11685 0.0 103210
05:00+3з116998 0.0 103211
08:00+5зсз247187 0.0 1032116
11:00+8зсз2468100 0.0 1032390
14:00+10зсз3457100 0.0 1032991
17:00+12зсз465699 0.0 10311394
20:00+10зсз2667100 0.0 1031191